STARLINK-11488, 62222

Orbit data source: Space-Track

STARLINK-11488, 62222 is a payload satellite owned by SpaceX/Seattle (US) in LEO that was launched on Thu, 05 Dec 2024 UTC via an FALCON 9 launch vehicle from the Air Force Western Test Range (AFWTR). Payload-class satellites include a variety of spacecraft equipped with specific instruments for various scientific and technological missions. These include communications satellites like Starlink; space stations such as the ISS; scientific satellites like the Hubble; Earth observation satellites from companies like Planet Labs, Umbra, and HawkEye 360; GPS; miniature CubeSats for education and research; and military/defense satellites.

Loading next visibility...
Identifier
62222, 2024-231E
Orbit
LEO
Country
Flag of USUS
Related business
Manufacturer
SpaceX/Seattle
Mission
Operational spacecraft
Bus & Motor
STARLINK V2MD, Unknown motor
Mass
960 kg wet, ~910 kg dry
Launch date (UTC)
2024-12-05 (11 months ago)
Launch vehicle
FALCON 9
Launch site
Air Force Western Test Range (AFWTR)
Object type
Payload
Rocket body
Debris
Shape & HBR
Unknown shape, 18.1 m
Radar Cross Section
Large (>1 m²)

Expand to show TLE details & history
Last TLE update: 15 hours ago

TLE from 15 hours ago
0 STARLINK-11488
1 62222U 24231E   25309.55892955  .00098993  00000-0  80986-3 0  9995
2 62222  53.1570 353.3139 0002774 159.8960 200.2168 15.69777993 53912
Epoch: 2025-11-05T13:24Z
TLE epoch observation values (Epoch: 2025-11-05T13:24:51.513Z)
Latitude
0.00003°
Longitude
107.06942°
Altitude
362.201 km
Speed
7.692 km/s
True Right ascension
23h 33m 15s
True Declination
0° 00' 00"
Sunlit
Object was in full shadow at epoch
Visualization orbit readout
Latitude
Unknown
Longitude
Unknown
Altitude
Unknown
Speed
Unknown
Apparent Right ascension
Unknown
Apparent Declination
Unknown
Sunlit
N/A
Visualization observer readout
Local Sidereal Time
00:37:56
Azimuth
Unknown
Elevation
Unknown
Doppler factor
Unknown
Orbital elements
Apogee altitude
361.662 km
Perigee altitude
357.924 km
Semi-major axis
6,737.93 km
Eccentricity
0.00028
Inclination
53.157°
RAAN
353.3139°
Arg. of periapsis
159.896°
True anomaly
200.20582°
Mean anomaly
200.2168°
Eccentric anomaly
200.21131°
Mean motion
3.92422 °/min
Orbital period
91.74 mins
BSTAR
0.00080986
Loading maneuver chart data...
Computing Atmospheric mass density...
Loading historical data...
Loading historical data...
Loading historical data...
Loading historical data...
Loading historical data...
Loading historical data...
Loading historical data...

Documentation

Showing up to 5 results
|